Home   Weather   Gorzów Wielkopolski   Past weeks

Flag for Poland Past Weather in Gorzów Wielkopolski, Poland — Yesterday and Last 2 Weeks

Now
31 °F

Fog.


Feels Like: 31 °F
Forecast: 23 / 27 °F
Wind: 2 mph from Southeast

Location: Gorzow Wlkp

Current Time: Jan 22, 2017 at 3:18:17 pm

Latest Report: Jan 22, 2017 at 2:00 pm


Visibility: 2 mi

Pressure: 30.41 "Hg

Humidity: 98%

Dew Point: 31 °F

Location of Gorzów WielkopolskiLocation

Past Weather in Gorzów Wielkopolski — Graph

°F

Gorzów Wielkopolski Temperature Yesterday

Maximum temperature yesterday: 34 °F (at 1:00 pm)
Minimum temperature yesterday: 33 °F (at 7:00 am)
Average temperature yesterday: 33 °F

High & Low Weather Summary for the Past Weeks

 TemperatureHumidityPressure
High38 °F (Jan 12, 12:00 pm)100% (Jan 20, 9:00 am)30.77 "Hg (Jan 20, 9:00 am)
Low13 °F (Jan 11, 7:00 am)58% (Jan 11, 12:00 pm)29.09 "Hg (Jan 13, 9:00 am)
Average28 °F92%30.17 "Hg
* Reported Jan 7 1:00 pm — Jan 22 1:00 pm, Gorzów Wielkopolski, Weather by CustomWeather, © 2017

Note: Actual official high and low records may vary slightly from our data, if they occured in-between our weather recording intervals... More about our weather records

Advertising

Gorzów Wielkopolski Weather History for the Previous 24 Hours

Scroll right to see more
 ConditionsComfort  
Time TempWeatherWind HumidityBarometerVisibility
1:00 pm
Sun, Jan 22
31 °FFog.2 mph98%30.42 "Hg2 mi
12:00 pm32 °FFog.2 mph97%30.44 "Hg2 mi
11:00 am32 °FFog.3 mph93%30.45 "Hg4 mi
10:00 am32 °FFog.2 mph93%30.46 "Hg3 mi
9:00 am31 °FFog.2 mph95%30.47 "Hg4 mi
8:00 am32 °FFog.2 mph97%30.47 "Hg4 mi
7:00 am32 °FFog.2 mph98%30.46 "Hg2 mi
6:00 am33 °FFog.2 mph100%30.47 "Hg2 mi
5:00 am33 °FFog.2 mph100%30.48 "Hg1 mi
4:00 am33 °FFog.2 mph100%30.48 "Hg1 mi
3:00 am33 °FFog.1 mph99%30.50 "Hg1 mi
2:00 am33 °FFog.1 mph99%30.50 "Hg1 mi
1:00 am33 °FFog.1 mph99%30.50 "Hg1 mi
12:00 am33 °FFog.1 mph99%30.51 "Hg1 mi
11:00 pm
Sat, Jan 21
33 °FFog.1 mph99%30.51 "Hg0 mi
10:00 pm33 °FFog.1 mph99%30.51 "Hg0 mi
9:00 pm33 °FFog.1 mph99%30.50 "Hg0 mi
8:00 pm33 °FFog.1 mph100%30.50 "Hg0 mi
7:00 pm34 °FFog.1 mph99%30.50 "Hg0 mi
6:00 pm34 °FFog.1 mph99%30.49 "Hg0 mi
5:00 pm34 °FFog.1 mph99%30.49 "Hg0 mi
4:00 pm34 °FFog.2 mph99%30.48 "Hg0 mi
3:00 pm34 °FFog.2 mph99%30.49 "Hg0 mi
Weather by CustomWeather, © 2017

See weather overviewHow to use our weather pages